contact:dominique.lefevre@mio.osupytheas.fr, maurice.libes@osupytheas.fr, didier.mallarino@osupytheas.fr
Project:EMSO http://www.emso-fr.org/EMSO-France
Depth: 2436.0 m
Title:EMSO Ligure Ouest : Data MII capteur MICROCAT
DateTime_Computer,Latitude,Longitude,Temperature,Conductivity,Pressure,DateTime_Instrument
DateTime_Computer,Latitude,Longitude,degC,S m-1,dbar,DateTime_Instrument
2020-03-05T00:02:23Z,42.805,6.029,13.2968,4.59967,2469.97,2020-3-05T02:02:59Z
2020-03-05T00:05:26Z,42.805,6.029,13.2967,4.59968,2469.947,2020-3-05T02:06:02Z
2020-03-05T00:08:29Z,42.805,6.029,13.2969,4.59972,2469.96,2020-3-05T02:09:06Z
2020-03-05T00:11:33Z,42.805,6.029,13.2966,4.59968,2469.947,2020-3-05T02:12:09Z
2020-03-05T00:14:36Z,42.805,6.029,13.2965,4.59968,2469.96,2020-3-05T02:15:12Z
2020-03-05T00:17:39Z,42.805,6.029,13.2966,4.59970,2469.984,2020-3-05T02:18:15Z
2020-03-05T00:20:42Z,42.805,6.029,13.2966,4.59969,2469.937,2020-3-05T02:21:19Z
2020-03-05T00:23:45Z,42.805,6.029,13.2967,4.59967,2469.947,2020-3-05T02:24:22Z
2020-03-05T00:26:49Z,42.805,6.029,13.2968,4.59967,2469.984,2020-3-05T02:27:25Z
2020-03-05T00:29:52Z,42.805,6.029,13.2967,4.59967,2469.97,2020-3-05T02:30:28Z
2020-03-05T00:32:55Z,42.805,6.029,13.2968,4.59967,2469.984,2020-3-05T02:33:31Z
2020-03-05T00:35:58Z,42.805,6.029,13.2967,4.59967,2469.984,2020-3-05T02:36:34Z
2020-03-05T00:39:01Z,42.805,6.029,13.2968,4.59967,2469.947,2020-3-05T02:39:38Z
2020-03-05T00:42:05Z,42.805,6.029,13.2969,4.59967,2469.993,2020-3-05T02:42:41Z
2020-03-05T00:45:08Z,42.805,6.029,13.2968,4.59969,2469.96,2020-3-05T02:45:44Z
2020-03-05T00:48:11Z,42.805,6.029,13.2964,4.59967,2470.007,2020-3-05T02:48:48Z
2020-03-05T00:51:14Z,42.805,6.029,13.2966,4.59967,2469.984,2020-3-05T02:51:51Z
2020-03-05T00:54:18Z,42.805,6.029,13.2967,4.59967,2469.97,2020-3-05T02:54:54Z
2020-03-05T00:57:21Z,42.805,6.029,13.2969,4.59967,2469.947,2020-3-05T02:57:57Z
2020-03-05T01:00:24Z,42.805,6.029,13.2967,4.59967,2469.984,2020-3-05T03:01:00Z
2020-03-05T01:03:27Z,42.805,6.029,13.2968,4.59967,2469.97,2020-3-05T03:04:03Z
2020-03-05T01:06:30Z,42.805,6.029,13.2968,4.59967,2469.984,2020-3-05T03:07:07Z
2020-03-05T01:09:34Z,42.805,6.029,13.2965,4.59968,2469.96,2020-3-05T03:10:10Z
2020-03-05T01:12:37Z,42.805,6.029,13.2967,4.59967,2470.007,2020-3-05T03:13:13Z
2020-03-05T01:15:40Z,42.805,6.029,13.2970,4.59968,2469.984,2020-3-05T03:16:16Z
2020-03-05T01:18:43Z,42.805,6.029,13.2968,4.59968,2469.993,2020-3-05T03:19:19Z
2020-03-05T01:21:46Z,42.805,6.029,13.2972,4.59971,2469.984,2020-3-05T03:22:23Z
2020-03-05T01:24:49Z,42.805,6.029,13.2967,4.59967,2470.007,2020-3-05T03:25:26Z
2020-03-05T01:27:53Z,42.805,6.029,13.2967,4.59967,2469.984,2020-3-05T03:28:29Z
2020-03-05T01:30:56Z,42.805,6.029,13.2969,4.59966,2469.984,2020-3-05T03:31:32Z
2020-03-05T01:33:59Z,42.805,6.029,13.2969,4.59967,2469.993,2020-3-05T03:34:35Z
2020-03-05T01:37:02Z,42.805,6.029,13.2968,4.59967,2470.007,2020-3-05T03:37:38Z
2020-03-05T01:40:05Z,42.805,6.029,13.2968,4.59968,2469.979,2020-3-05T03:40:42Z
2020-03-05T01:43:08Z,42.805,6.029,13.2968,4.59968,2469.993,2020-3-05T03:43:45Z
2020-03-05T01:46:12Z,42.805,6.029,13.2968,4.59967,2470.017,2020-3-05T03:46:48Z
2020-03-05T01:49:15Z,42.805,6.029,13.2970,4.59968,2470.007,2020-3-05T03:49:51Z
2020-03-05T01:52:18Z,42.805,6.029,13.2967,4.59968,2469.993,2020-3-05T03:52:54Z
2020-03-05T01:55:21Z,42.805,6.029,13.2970,4.59968,2470.007,2020-3-05T03:55:58Z
2020-03-05T01:58:24Z,42.805,6.029,13.2967,4.59971,2469.993,2020-3-05T03:59:01Z
2020-03-05T02:01:28Z,42.805,6.029,13.2970,4.59970,2469.97,2020-3-05T04:02:04Z
2020-03-05T02:04:31Z,42.805,6.029,13.2966,4.59969,2469.993,2020-3-05T04:05:07Z
2020-03-05T02:07:34Z,42.805,6.029,13.2967,4.59969,2470.007,2020-3-05T04:08:10Z
2020-03-05T02:10:37Z,42.805,6.029,13.2967,4.59968,2470.017,2020-3-05T04:11:13Z
2020-03-05T02:13:40Z,42.805,6.029,13.2969,4.59972,2469.979,2020-3-05T04:14:17Z
2020-03-05T02:16:43Z,42.805,6.029,13.2968,4.59970,2470.003,2020-3-05T04:17:20Z
2020-03-05T02:19:47Z,42.805,6.029,13.2966,4.59969,2470.017,2020-3-05T04:20:23Z
2020-03-05T02:22:50Z,42.805,6.029,13.2972,4.59972,2470.053,2020-3-05T04:23:26Z
2020-03-05T02:25:53Z,42.805,6.029,13.2970,4.59968,2469.993,2020-3-05T04:26:29Z
2020-03-05T02:28:56Z,42.805,6.029,13.2967,4.59971,2470.03,2020-3-05T04:29:33Z
2020-03-05T02:31:59Z,42.805,6.029,13.2969,4.59968,2470.053,2020-3-05T04:32:36Z
2020-03-05T02:35:03Z,42.805,6.029,13.2967,4.59968,2470.04,2020-3-05T04:35:39Z
2020-03-05T02:38:06Z,42.805,6.029,13.2966,4.59968,2470.017,2020-3-05T04:38:43Z
2020-03-05T02:41:10Z,42.805,6.029,13.2967,4.59968,2470.04,2020-3-05T04:41:46Z
2020-03-05T02:44:13Z,42.805,6.029,13.2972,4.59968,2470.017,2020-3-05T04:44:49Z
2020-03-05T02:47:16Z,42.805,6.029,13.2971,4.59968,2470.017,2020-3-05T04:47:53Z
2020-03-05T02:50:19Z,42.805,6.029,13.2968,4.59970,2470.03,2020-3-05T04:50:56Z
2020-03-05T02:53:23Z,42.805,6.029,13.2971,4.59973,2470.017,2020-3-05T04:53:59Z
2020-03-05T02:56:26Z,42.805,6.029,13.2967,4.59969,2470.03,2020-3-05T04:57:02Z
2020-03-05T02:59:29Z,42.805,6.029,13.2967,4.59970,2470.017,2020-3-05T05:00:05Z
2020-03-05T03:02:32Z,42.805,6.029,13.2968,4.59968,2470.04,2020-3-05T05:03:08Z
2020-03-05T03:05:35Z,42.805,6.029,13.2968,4.59969,2470.077,2020-3-05T05:06:12Z
2020-03-05T03:08:38Z,42.805,6.029,13.2967,4.59969,2470.063,2020-3-05T05:09:15Z
2020-03-05T03:11:42Z,42.805,6.029,13.2968,4.59969,2470.017,2020-3-05T05:12:18Z
2020-03-05T03:14:45Z,42.805,6.029,13.2968,4.59969,2470.063,2020-3-05T05:15:21Z
2020-03-05T03:17:48Z,42.805,6.029,13.2971,4.59968,2470.04,2020-3-05T05:18:24Z
2020-03-05T03:20:51Z,42.805,6.029,13.2970,4.59968,2470.053,2020-3-05T05:21:28Z
2020-03-05T03:23:54Z,42.805,6.029,13.2973,4.59968,2470.049,2020-3-05T05:24:31Z
2020-03-05T03:26:58Z,42.805,6.029,13.2968,4.59968,2470.04,2020-3-05T05:27:34Z
2020-03-05T03:30:01Z,42.805,6.029,13.2968,4.59970,2470.053,2020-3-05T05:30:37Z
2020-03-05T03:33:04Z,42.805,6.029,13.2969,4.59970,2470.04,2020-3-05T05:33:41Z
2020-03-05T03:36:07Z,42.805,6.029,13.2968,4.59968,2470.04,2020-3-05T05:36:44Z
2020-03-05T03:39:11Z,42.805,6.029,13.2968,4.59968,2470.053,2020-3-05T05:39:47Z
2020-03-05T03:42:14Z,42.805,6.029,13.2972,4.59972,2470.053,2020-3-05T05:42:50Z
2020-03-05T03:45:17Z,42.805,6.029,13.2969,4.59969,2470.04,2020-3-05T05:45:53Z
2020-03-05T03:48:20Z,42.805,6.029,13.2968,4.59968,2470.077,2020-3-05T05:48:56Z
2020-03-05T03:51:23Z,42.805,6.029,13.2968,4.59969,2470.04,2020-3-05T05:52:00Z
2020-03-05T03:54:26Z,42.805,6.029,13.2969,4.59975,2470.04,2020-3-05T05:55:03Z
2020-03-05T03:57:30Z,42.805,6.029,13.2975,4.59975,2470.063,2020-3-05T05:58:06Z
2020-03-05T04:00:33Z,42.805,6.029,13.2969,4.59969,2470.077,2020-3-05T06:01:09Z
2020-03-05T04:03:36Z,42.805,6.029,13.2970,4.59969,2470.063,2020-3-05T06:04:12Z
2020-03-05T04:06:39Z,42.805,6.029,13.2970,4.59969,2470.063,2020-3-05T06:07:16Z
2020-03-05T04:09:43Z,42.805,6.029,13.2971,4.59968,2470.04,2020-3-05T06:10:19Z
2020-03-05T04:12:46Z,42.805,6.029,13.2972,4.59968,2470.04,2020-3-05T06:13:22Z
2020-03-05T04:15:49Z,42.805,6.029,13.2975,4.59974,2470.017,2020-3-05T06:16:25Z
2020-03-05T04:18:52Z,42.805,6.029,13.2975,4.59974,2470.063,2020-3-05T06:19:29Z
2020-03-05T04:21:56Z,42.805,6.029,13.2971,4.59973,2470.1,2020-3-05T06:22:32Z
2020-03-05T04:24:59Z,42.805,6.029,13.2971,4.59973,2470.04,2020-3-05T06:25:35Z
2020-03-05T04:28:02Z,42.805,6.029,13.2974,4.59973,2470.04,2020-3-05T06:28:38Z
2020-03-05T04:31:05Z,42.805,6.029,13.2978,4.59992,2470.063,2020-3-05T06:31:41Z
2020-03-05T04:34:08Z,42.805,6.029,13.2977,4.59986,2470.063,2020-3-05T06:34:45Z
2020-03-05T04:37:12Z,42.805,6.029,13.2981,4.59993,2470.04,2020-3-05T06:37:48Z
2020-03-05T04:40:15Z,42.805,6.029,13.2977,4.59994,2470.077,2020-3-05T06:40:51Z
2020-03-05T04:43:18Z,42.805,6.029,13.2971,4.59979,2470.04,2020-3-05T06:43:54Z
2020-03-05T04:46:21Z,42.805,6.029,13.2982,4.59973,2470.077,2020-3-05T06:46:57Z
2020-03-05T04:49:24Z,42.805,6.029,13.2976,4.59973,2470.063,2020-3-05T06:50:01Z
2020-03-05T04:52:28Z,42.805,6.029,13.2971,4.59969,2470.077,2020-3-05T06:53:04Z
2020-03-05T04:55:31Z,42.805,6.029,13.2975,4.59988,2470.077,2020-3-05T06:56:07Z
2020-03-05T04:58:34Z,42.805,6.029,13.2988,4.59984,2470.04,2020-3-05T06:59:10Z
2020-03-05T05:01:37Z,42.805,6.029,13.2979,4.59990,2470.063,2020-3-05T07:02:14Z
2020-03-05T05:04:40Z,42.805,6.029,13.2983,4.60010,2470.077,2020-3-05T07:05:17Z
2020-03-05T05:07:44Z,42.805,6.029,13.2991,4.59991,2470.1,2020-3-05T07:08:20Z
2020-03-05T05:10:47Z,42.805,6.029,13.2982,4.59988,2470.04,2020-3-05T07:11:23Z
2020-03-05T05:13:50Z,42.805,6.029,13.2993,4.59994,2470.063,2020-3-05T07:14:26Z
2020-03-05T05:16:53Z,42.805,6.029,13.2983,4.59981,2470.063,2020-3-05T07:17:30Z
2020-03-05T05:19:56Z,42.805,6.029,13.2988,4.60014,2470.063,2020-3-05T07:20:33Z
2020-03-05T05:23:00Z,42.805,6.029,13.3000,4.60038,2470.04,2020-3-05T07:23:36Z
2020-03-05T05:26:03Z,42.805,6.029,13.2981,4.60010,2470.053,2020-3-05T07:26:39Z
2020-03-05T05:29:06Z,42.805,6.029,13.2998,4.60009,2470.04,2020-3-05T07:29:42Z
2020-03-05T05:32:09Z,42.805,6.029,13.2979,4.59994,2470.087,2020-3-05T07:32:46Z
2020-03-05T05:35:12Z,42.805,6.029,13.2982,4.60005,2470.063,2020-3-05T07:35:49Z
2020-03-05T05:38:16Z,42.805,6.029,13.2990,4.60024,2470.063,2020-3-05T07:38:52Z
2020-03-05T05:41:19Z,42.805,6.029,13.2983,4.60016,2470.063,2020-3-05T07:41:55Z
2020-03-05T05:44:22Z,42.805,6.029,13.2982,4.60019,2470.063,2020-3-05T07:44:58Z
2020-03-05T05:47:25Z,42.805,6.029,13.2983,4.60035,2470.077,2020-3-05T07:48:02Z
2020-03-05T05:50:29Z,42.805,6.029,13.2988,4.60028,2470.063,2020-3-05T07:51:05Z
2020-03-05T05:53:32Z,42.805,6.029,13.2998,4.60016,2470.053,2020-3-05T07:54:08Z
2020-03-05T05:56:35Z,42.805,6.029,13.2991,4.60029,2470.04,2020-3-05T07:57:11Z
2020-03-05T05:59:38Z,42.805,6.029,13.2989,4.59999,2470.03,2020-3-05T08:00:15Z
2020-03-05T06:02:41Z,42.805,6.029,13.2978,4.60003,2470.04,2020-3-05T08:03:18Z
2020-03-05T06:05:45Z,42.805,6.029,13.2992,4.60012,2470.087,2020-3-05T08:06:21Z
2020-03-05T06:08:48Z,42.805,6.029,13.2983,4.59997,2470.04,2020-3-05T08:09:24Z
2020-03-05T06:11:51Z,42.805,6.029,13.2996,4.60021,2470.053,2020-3-05T08:12:27Z
2020-03-05T06:14:54Z,42.805,6.029,13.2986,4.60007,2470.053,2020-3-05T08:15:31Z
2020-03-05T06:17:57Z,42.805,6.029,13.2987,4.60010,2470.063,2020-3-05T08:18:34Z
2020-03-05T06:21:01Z,42.805,6.029,13.2982,4.60014,2470.053,2020-3-05T08:21:37Z
2020-03-05T06:24:04Z,42.805,6.029,13.2989,4.60016,2470.03,2020-3-05T08:24:40Z
2020-03-05T06:27:07Z,42.805,6.029,13.2987,4.60003,2470.063,2020-3-05T08:27:44Z
2020-03-05T06:30:10Z,42.805,6.029,13.2979,4.60003,2470.053,2020-3-05T08:30:47Z
2020-03-05T06:33:14Z,42.805,6.029,13.2979,4.60001,2470.04,2020-3-05T08:33:50Z
2020-03-05T06:36:17Z,42.805,6.029,13.2997,4.60016,2470.053,2020-3-05T08:36:53Z
2020-03-05T06:39:20Z,42.805,6.029,13.2982,4.60003,2470.077,2020-3-05T08:39:56Z
2020-03-05T06:42:23Z,42.805,6.029,13.2979,4.60008,2470.077,2020-3-05T08:43:00Z
2020-03-05T06:45:26Z,42.805,6.029,13.2983,4.60000,2470.063,2020-3-05T08:46:03Z
2020-03-05T06:48:30Z,42.805,6.029,13.2981,4.60017,2470.063,2020-3-05T08:49:06Z
2020-03-05T06:51:33Z,42.805,6.029,13.2982,4.59992,2470.077,2020-3-05T08:52:09Z
2020-03-05T06:54:36Z,42.805,6.029,13.2990,4.60010,2470.063,2020-3-05T08:55:12Z
2020-03-05T06:57:39Z,42.805,6.029,13.2993,4.60024,2470.063,2020-3-05T08:58:16Z
2020-03-05T07:00:42Z,42.805,6.029,13.2996,4.60035,2470.04,2020-3-05T09:01:19Z
2020-03-05T07:03:46Z,42.805,6.029,13.2988,4.60012,2470.063,2020-3-05T09:04:22Z
2020-03-05T07:06:49Z,42.805,6.029,13.2990,4.60015,2470.053,2020-3-05T09:07:25Z
2020-03-05T07:09:52Z,42.805,6.029,13.2978,4.60005,2470.053,2020-3-05T09:10:28Z
2020-03-05T07:12:55Z,42.805,6.029,13.2980,4.60052,2470.087,2020-3-05T09:13:32Z
2020-03-05T07:15:58Z,42.805,6.029,13.2986,4.60021,2470.03,2020-3-05T09:16:35Z
2020-03-05T07:19:02Z,42.805,6.029,13.2985,4.60044,2470.053,2020-3-05T09:19:38Z
2020-03-05T07:22:05Z,42.805,6.029,13.2991,4.59994,2470.04,2020-3-05T09:22:41Z
2020-03-05T07:25:08Z,42.805,6.029,13.2987,4.60028,2470.053,2020-3-05T09:25:44Z
2020-03-05T07:28:11Z,42.805,6.029,13.2982,4.60018,2470.017,2020-3-05T09:28:48Z
2020-03-05T07:31:15Z,42.805,6.029,13.2991,4.60019,2470.03,2020-3-05T09:31:51Z
2020-03-05T07:34:18Z,42.805,6.029,13.2978,4.60027,2470.053,2020-3-05T09:34:55Z
2020-03-05T07:37:21Z,42.805,6.029,13.2986,4.60029,2470.053,2020-3-05T09:37:58Z
2020-03-05T07:40:25Z,42.805,6.029,13.2982,4.60026,2470.04,2020-3-05T09:41:01Z
2020-03-05T07:43:28Z,42.805,6.029,13.2985,4.60039,2470.04,2020-3-05T09:44:04Z
2020-03-05T07:46:31Z,42.805,6.029,13.2994,4.60057,2470.017,2020-3-05T09:47:07Z
2020-03-05T07:49:34Z,42.805,6.029,13.2991,4.60033,2470.017,2020-3-05T09:50:11Z
2020-03-05T07:52:37Z,42.805,6.029,13.2994,4.60033,2470.03,2020-3-05T09:53:14Z
2020-03-05T07:55:41Z,42.805,6.029,13.2992,4.60016,2470.063,2020-3-05T09:56:17Z
2020-03-05T07:58:44Z,42.805,6.029,13.2982,4.60028,2470.007,2020-3-05T09:59:20Z
2020-03-05T08:01:47Z,42.805,6.029,13.2983,4.60037,2470.017,2020-3-05T10:02:23Z
2020-03-05T08:04:50Z,42.805,6.029,13.2996,4.60011,2470.017,2020-3-05T10:05:27Z
2020-03-05T08:07:54Z,42.805,6.029,13.2983,4.60041,2469.993,2020-3-05T10:08:30Z
2020-03-05T08:10:57Z,42.805,6.029,13.2986,4.60020,2470.03,2020-3-05T10:11:33Z
2020-03-05T08:14:00Z,42.805,6.029,13.2991,4.60037,2470.017,2020-3-05T10:14:36Z
2020-03-05T08:17:03Z,42.805,6.029,13.2983,4.60031,2469.97,2020-3-05T10:17:39Z
2020-03-05T08:20:06Z,42.805,6.029,13.2982,4.60038,2469.993,2020-3-05T10:20:43Z
2020-03-05T08:23:10Z,42.805,6.029,13.3005,4.60036,2470.007,2020-3-05T10:23:46Z
2020-03-05T08:26:13Z,42.805,6.029,13.2990,4.60031,2470.017,2020-3-05T10:26:49Z
2020-03-05T08:29:16Z,42.805,6.029,13.2984,4.60023,2469.993,2020-3-05T10:29:52Z
2020-03-05T08:32:19Z,42.805,6.029,13.2986,4.60060,2469.984,2020-3-05T10:32:56Z
2020-03-05T08:35:22Z,42.805,6.029,13.2998,4.60079,2470.03,2020-3-05T10:35:59Z
2020-03-05T08:38:26Z,42.805,6.029,13.3002,4.60033,2469.993,2020-3-05T10:39:02Z
2020-03-05T08:41:29Z,42.805,6.029,13.3005,4.60058,2470.017,2020-3-05T10:42:05Z
2020-03-05T08:44:32Z,42.805,6.029,13.2990,4.60049,2469.993,2020-3-05T10:45:08Z
2020-03-05T08:47:35Z,42.805,6.029,13.2983,4.60024,2470.007,2020-3-05T10:48:12Z
2020-03-05T08:50:38Z,42.805,6.029,13.2994,4.60059,2470.017,2020-3-05T10:51:15Z
2020-03-05T08:53:42Z,42.805,6.029,13.2984,4.60082,2470.017,2020-3-05T10:54:18Z
2020-03-05T08:56:45Z,42.805,6.029,13.2987,4.60044,2470.017,2020-3-05T10:57:21Z
2020-03-05T08:59:48Z,42.805,6.029,13.2989,4.60052,2469.984,2020-3-05T11:00:24Z
2020-03-05T09:02:51Z,42.805,6.029,13.2996,4.60070,2470.007,2020-3-05T11:03:28Z
2020-03-05T09:05:54Z,42.805,6.029,13.2991,4.60062,2470.017,2020-3-05T11:06:31Z
2020-03-05T09:08:58Z,42.805,6.029,13.3026,4.60066,2469.97,2020-3-05T11:09:34Z
2020-03-05T09:12:01Z,42.805,6.029,13.3006,4.60043,2469.984,2020-3-05T11:12:37Z
2020-03-05T09:15:04Z,42.805,6.029,13.3011,4.60002,2469.97,2020-3-05T11:15:40Z
2020-03-05T09:18:07Z,42.805,6.029,13.3006,4.60023,2469.993,2020-3-05T11:18:44Z
2020-03-05T09:21:11Z,42.805,6.029,13.3012,4.60034,2470.007,2020-3-05T11:21:47Z
2020-03-05T09:24:14Z,42.805,6.029,13.3000,4.60050,2469.993,2020-3-05T11:24:50Z
2020-03-05T09:27:17Z,42.805,6.029,13.2996,4.60084,2469.993,2020-3-05T11:27:53Z
2020-03-05T09:30:20Z,42.805,6.029,13.3009,4.60055,2469.993,2020-3-05T11:30:57Z
2020-03-05T09:33:23Z,42.805,6.029,13.3009,4.60046,2469.993,2020-3-05T11:34:00Z
2020-03-05T09:36:27Z,42.805,6.029,13.2998,4.60048,2469.947,2020-3-05T11:37:03Z
2020-03-05T09:39:30Z,42.805,6.029,13.3004,4.60029,2469.96,2020-3-05T11:40:06Z
2020-03-05T09:42:33Z,42.805,6.029,13.3020,4.59992,2469.984,2020-3-05T11:43:09Z
2020-03-05T09:45:36Z,42.805,6.029,13.3024,4.60005,2469.993,2020-3-05T11:46:13Z
2020-03-05T09:48:39Z,42.805,6.029,13.3009,4.60014,2470.017,2020-3-05T11:49:16Z
2020-03-05T09:51:43Z,42.805,6.029,13.3006,4.60009,2470.017,2020-3-05T11:52:19Z
2020-03-05T09:54:46Z,42.805,6.029,13.3019,4.59986,2470.007,2020-3-05T11:55:22Z
2020-03-05T09:57:49Z,42.805,6.029,13.3005,4.60014,2470.007,2020-3-05T11:58:26Z
2020-03-05T10:00:52Z,42.805,6.029,13.3002,4.60032,2469.984,2020-3-05T12:01:29Z
2020-03-05T10:03:56Z,42.805,6.029,13.3005,4.60046,2469.984,2020-3-05T12:04:32Z
2020-03-05T10:06:59Z,42.805,6.029,13.3004,4.60075,2469.97,2020-3-05T12:07:35Z
2020-03-05T10:10:02Z,42.805,6.029,13.2976,4.60015,2470.007,2020-3-05T12:10:38Z
2020-03-05T10:13:05Z,42.805,6.029,13.2976,4.59989,2469.97,2020-3-05T12:13:42Z
2020-03-05T10:16:08Z,42.805,6.029,13.2971,4.59987,2469.97,2020-3-05T12:16:45Z
2020-03-05T10:19:12Z,42.805,6.029,13.2972,4.59988,2469.97,2020-3-05T12:19:48Z
2020-03-05T10:22:15Z,42.805,6.029,13.2969,4.59984,2469.984,2020-3-05T12:22:51Z
2020-03-05T10:25:18Z,42.805,6.029,13.2968,4.59990,2470.007,2020-3-05T12:25:55Z
2020-03-05T10:28:21Z,42.805,6.029,13.2971,4.59981,2470.017,2020-3-05T12:28:58Z
2020-03-05T10:31:25Z,42.805,6.029,13.2968,4.59979,2469.984,2020-3-05T12:32:01Z
2020-03-05T10:34:28Z,42.805,6.029,13.2967,4.59978,2469.993,2020-3-05T12:35:05Z
2020-03-05T10:37:31Z,42.805,6.029,13.2969,4.59980,2470.03,2020-3-05T12:38:08Z
2020-03-05T10:40:35Z,42.805,6.029,13.2969,4.59980,2469.947,2020-3-05T12:41:11Z
2020-03-05T10:43:38Z,42.805,6.029,13.2970,4.59974,2470.007,2020-3-05T12:44:14Z
2020-03-05T10:46:41Z,42.805,6.029,13.2970,4.59975,2469.993,2020-3-05T12:47:17Z
2020-03-05T10:49:44Z,42.805,6.029,13.2970,4.59974,2469.97,2020-3-05T12:50:21Z
2020-03-05T10:52:48Z,42.805,6.029,13.2967,4.59976,2469.97,2020-3-05T12:53:24Z
2020-03-05T10:55:51Z,42.805,6.029,13.2969,4.59976,2469.97,2020-3-05T12:56:27Z
2020-03-05T10:58:54Z,42.805,6.029,13.2976,4.59974,2469.993,2020-3-05T12:59:30Z
2020-03-05T11:01:57Z,42.805,6.029,13.2970,4.59982,2469.979,2020-3-05T13:02:34Z
2020-03-05T11:05:00Z,42.805,6.029,13.2967,4.59976,2469.97,2020-3-05T13:05:37Z
2020-03-05T11:08:04Z,42.805,6.029,13.2966,4.59975,2470.017,2020-3-05T13:08:40Z
2020-03-05T11:11:07Z,42.805,6.029,13.2971,4.59975,2469.96,2020-3-05T13:11:43Z
2020-03-05T11:14:10Z,42.805,6.029,13.2971,4.59978,2469.993,2020-3-05T13:14:47Z
2020-03-05T11:17:13Z,42.805,6.029,13.2972,4.59975,2470.007,2020-3-05T13:17:50Z
2020-03-05T11:20:17Z,42.805,6.029,13.2971,4.59973,2469.97,2020-3-05T13:20:53Z
2020-03-05T11:23:20Z,42.805,6.029,13.2968,4.59974,2469.984,2020-3-05T13:23:56Z
2020-03-05T11:26:23Z,42.805,6.029,13.2970,4.59973,2469.97,2020-3-05T13:26:59Z
2020-03-05T11:29:26Z,42.805,6.029,13.2967,4.59976,2469.947,2020-3-05T13:30:03Z
2020-03-05T11:32:29Z,42.805,6.029,13.2968,4.59975,2469.984,2020-3-05T13:33:06Z
2020-03-05T11:35:33Z,42.805,6.029,13.2969,4.59974,2469.993,2020-3-05T13:36:09Z
2020-03-05T11:38:36Z,42.805,6.029,13.2972,4.59986,2470.03,2020-3-05T13:39:12Z
2020-03-05T11:41:39Z,42.805,6.029,13.2969,4.59981,2469.97,2020-3-05T13:42:15Z
2020-03-05T11:44:42Z,42.805,6.029,13.2968,4.59977,2470.017,2020-3-05T13:45:19Z
2020-03-05T11:47:46Z,42.805,6.029,13.2969,4.59987,2469.984,2020-3-05T13:48:22Z
2020-03-05T11:50:49Z,42.805,6.029,13.2971,4.59973,2469.97,2020-3-05T13:51:25Z
2020-03-05T11:53:52Z,42.805,6.029,13.2972,4.59974,2469.947,2020-3-05T13:54:28Z
2020-03-05T11:56:55Z,42.805,6.029,13.2971,4.59974,2469.947,2020-3-05T13:57:31Z
2020-03-05T11:59:59Z,42.805,6.029,13.2970,4.59976,2469.984,2020-3-05T14:00:35Z
2020-03-05T12:03:02Z,42.805,6.029,13.2970,4.59973,2469.993,2020-3-05T14:03:38Z
2020-03-05T12:06:05Z,42.805,6.029,13.2968,4.59973,2469.97,2020-3-05T14:06:41Z
2020-03-05T12:09:08Z,42.805,6.029,13.2971,4.59978,2469.947,2020-3-05T14:09:45Z
2020-03-05T12:12:12Z,42.805,6.029,13.2970,4.59976,2469.993,2020-3-05T14:12:48Z
2020-03-05T12:15:15Z,42.805,6.029,13.2971,4.59976,2469.984,2020-3-05T14:15:51Z
2020-03-05T12:18:18Z,42.805,6.029,13.2974,4.59973,2469.993,2020-3-05T14:18:54Z
2020-03-05T12:21:21Z,42.805,6.029,13.2972,4.59973,2469.993,2020-3-05T14:21:57Z
2020-03-05T12:24:24Z,42.805,6.029,13.2970,4.59972,2469.984,2020-3-05T14:25:01Z
2020-03-05T12:27:28Z,42.805,6.029,13.2968,4.59978,2469.97,2020-3-05T14:28:04Z
2020-03-05T12:30:31Z,42.805,6.029,13.2972,4.59973,2470.007,2020-3-05T14:31:07Z
2020-03-05T12:33:34Z,42.805,6.029,13.2968,4.59973,2470.007,2020-3-05T14:34:10Z
2020-03-05T12:36:37Z,42.805,6.029,13.2974,4.59974,2469.993,2020-3-05T14:37:14Z
2020-03-05T12:39:40Z,42.805,6.029,13.2971,4.59981,2469.993,2020-3-05T14:40:17Z
2020-03-05T12:42:44Z,42.805,6.029,13.2975,4.59973,2470.007,2020-3-05T14:43:20Z
2020-03-05T12:45:47Z,42.805,6.029,13.2971,4.59973,2469.947,2020-3-05T14:46:23Z
2020-03-05T12:48:50Z,42.805,6.029,13.2974,4.59975,2470.04,2020-3-05T14:49:26Z
2020-03-05T12:51:53Z,42.805,6.029,13.2971,4.59976,2469.984,2020-3-05T14:52:30Z
2020-03-05T12:54:57Z,42.805,6.029,13.2974,4.59986,2469.97,2020-3-05T14:55:33Z
2020-03-05T12:58:00Z,42.805,6.029,13.2973,4.59976,2469.993,2020-3-05T14:58:36Z
2020-03-05T13:01:03Z,42.805,6.029,13.2976,4.59974,2469.97,2020-3-05T15:01:39Z
2020-03-05T13:04:06Z,42.805,6.029,13.2969,4.59975,2469.97,2020-3-05T15:04:43Z
2020-03-05T13:07:09Z,42.805,6.029,13.2976,4.59976,2469.96,2020-3-05T15:07:46Z
2020-03-05T13:10:13Z,42.805,6.029,13.2973,4.59982,2470.03,2020-3-05T15:10:49Z
2020-03-05T13:13:16Z,42.805,6.029,13.2979,4.59974,2470.017,2020-3-05T15:13:52Z
2020-03-05T13:16:19Z,42.805,6.029,13.2977,4.59976,2469.993,2020-3-05T15:16:55Z
2020-03-05T13:19:22Z,42.805,6.029,13.2972,4.59976,2469.96,2020-3-05T15:19:59Z
2020-03-05T13:22:26Z,42.805,6.029,13.2974,4.59977,2470.007,2020-3-05T15:23:02Z
2020-03-05T13:25:29Z,42.805,6.029,13.2973,4.59976,2469.993,2020-3-05T15:26:05Z
2020-03-05T13:28:32Z,42.805,6.029,13.2973,4.59978,2470.007,2020-3-05T15:29:08Z
2020-03-05T13:31:35Z,42.805,6.029,13.2971,4.59974,2469.993,2020-3-05T15:32:11Z
2020-03-05T13:34:38Z,42.805,6.029,13.2975,4.59974,2469.993,2020-3-05T15:35:15Z
2020-03-05T13:37:42Z,42.805,6.029,13.2971,4.59973,2469.97,2020-3-05T15:38:18Z
2020-03-05T13:40:45Z,42.805,6.029,13.2970,4.59976,2469.97,2020-3-05T15:41:21Z
2020-03-05T13:43:48Z,42.805,6.029,13.2974,4.59973,2469.993,2020-3-05T15:44:24Z
2020-03-05T13:46:51Z,42.805,6.029,13.2973,4.59979,2469.993,2020-3-05T15:47:28Z
2020-03-05T13:49:54Z,42.805,6.029,13.2973,4.59975,2469.993,2020-3-05T15:50:31Z
2020-03-05T13:52:58Z,42.805,6.029,13.2973,4.59974,2470.007,2020-3-05T15:53:34Z
2020-03-05T13:56:01Z,42.805,6.029,13.2974,4.59988,2469.984,2020-3-05T15:56:37Z
2020-03-05T13:59:04Z,42.805,6.029,13.2973,4.59978,2470.007,2020-3-05T15:59:41Z
2020-03-05T14:02:07Z,42.805,6.029,13.2971,4.59978,2470.017,2020-3-05T16:02:44Z
2020-03-05T14:05:11Z,42.805,6.029,13.2974,4.59976,2469.993,2020-3-05T16:05:47Z
2020-03-05T14:08:14Z,42.805,6.029,13.2974,4.59978,2469.993,2020-3-05T16:08:50Z
2020-03-05T14:11:17Z,42.805,6.029,13.2974,4.59980,2469.993,2020-3-05T16:11:53Z
2020-03-05T14:14:20Z,42.805,6.029,13.2972,4.59977,2469.984,2020-3-05T16:14:57Z
2020-03-05T14:17:23Z,42.805,6.029,13.2974,4.59973,2469.993,2020-3-05T16:18:00Z
2020-03-05T14:20:27Z,42.805,6.029,13.2976,4.59973,2470.017,2020-3-05T16:21:03Z
2020-03-05T14:23:30Z,42.805,6.029,13.2975,4.59974,2470.017,2020-3-05T16:24:06Z
2020-03-05T14:26:33Z,42.805,6.029,13.2975,4.59973,2470.007,2020-3-05T16:27:09Z
2020-03-05T14:29:36Z,42.805,6.029,13.2971,4.59978,2469.993,2020-3-05T16:30:13Z
2020-03-05T14:32:39Z,42.805,6.029,13.2971,4.59973,2470.03,2020-3-05T16:33:16Z
2020-03-05T14:35:43Z,42.805,6.029,13.2971,4.59974,2470.017,2020-3-05T16:36:19Z
2020-03-05T14:38:46Z,42.805,6.029,13.2974,4.59975,2470.003,2020-3-05T16:39:22Z
2020-03-05T14:41:49Z,42.805,6.029,13.2971,4.59972,2470.03,2020-3-05T16:42:26Z
2020-03-05T14:44:52Z,42.805,6.029,13.2969,4.59973,2470.053,2020-3-05T16:45:29Z
2020-03-05T14:47:56Z,42.805,6.029,13.2971,4.59974,2470.053,2020-3-05T16:48:32Z
2020-03-05T14:50:59Z,42.805,6.029,13.2973,4.59975,2470.017,2020-3-05T16:51:35Z
2020-03-05T14:54:02Z,42.805,6.029,13.2970,4.59971,2470.017,2020-3-05T16:54:39Z
2020-03-05T14:57:05Z,42.805,6.029,13.2968,4.59973,2470.053,2020-3-05T16:57:42Z
2020-03-05T15:00:09Z,42.805,6.029,13.2969,4.59972,2469.993,2020-3-05T17:00:45Z
2020-03-05T15:03:12Z,42.805,6.029,13.2969,4.59973,2470.053,2020-3-05T17:03:48Z
2020-03-05T15:06:15Z,42.805,6.029,13.2971,4.59972,2470.053,2020-3-05T17:06:51Z
2020-03-05T15:09:18Z,42.805,6.029,13.2972,4.59973,2470.03,2020-3-05T17:09:55Z
2020-03-05T15:12:22Z,42.805,6.029,13.2971,4.59973,2470.04,2020-3-05T17:12:58Z
2020-03-05T15:15:25Z,42.805,6.029,13.2971,4.59974,2470.017,2020-3-05T17:16:01Z